Location: Unspecified
(0.0000°N, 0.0000°E)
Time: 07:25:07
(UTC+00:00)

Transit 4A - Pass Details

Date: 11 October 2023
Orbit: 864 x 979 km, 66.8° (Epoch: 05 December)

Event Time Altitude Azimuth Distance (km) Brightness Sun altitude
Rises 19:30:03 0° 327° (NNW) 3,548 11.3 -25.6°
Reaches altitude 10° 19:32:43 10° 320° (NW) 2,590 10.6 -26.3°
Maximum altitude 19:38:19 41° 251° (WSW) 1,266 9.0 -27.7°
Drops below altitude 10° 19:43:48 10° 181° (S) 2,533 10.3 -29.0°
Sets 19:46:24 0° 174° (S) 3,462 10.9 -29.7°
